Terug naar catalogus

STARLINK-11324

ActiefCommunicatieVLEO
NORAD 61879·PAYLOAD·🇺🇸 United States

Gelanceerd Nov 9, 2024 vanaf Vandenberg Space Force Base

Loading…

Volgende Passages (komende 24 uur)

TLE

VersSource: CelesTrak SupGP

Epoch: Sep 15, 2026, 03:40 UTC

1 61879C 24204F   26258.15326389  .00068336  00000+0  56272-3 0  2581
2 61879  53.1562 142.3913 0001026  84.3360 162.7433 15.69683158    10

Volg STARLINK-11324 in realtime met AllMySat

Download on the App Store